Date String (YYYY-MM-DD hh:mm:ss) UTC,Instrument flags,absolute air pressure of the measurement (hPa),sample flow rate (lpm),inlet stack bypass flow (lpm),air temperature of the measurement (°C),ambient temperature measured by the external sensor (°C),aerosol sample conditioner tube jacket temperature (°C),OPC LED temperature (°C),internal box temperature (°C),relative humidity of the measurement (%),span deviation,mass concentration of particles derived from Lorenz-Mie calculation of OPC scattering (μg/m³),mass concentration of particles derived from Lorenz-Mie calculation of OPC scattering (μg/m³),mass concentration of particles derived from Lorenz-Mie calculation of OPC scattering (μg/m³)
DateTimeUTC,F1_M11,P_M11,Q1_M11,Q2_M11,T1_M11,T2_M11,T3_M11,T4_M11,T5_M11,U1_M11,ZSPAN_M11,X0_M11,X2_M11,X1_M11
2023-11-15 13:00:00,SystemResetWarning,0833.0,5.00,000.00,025.4,024.2,000.0,033.8,026.7,8.2,0000.0,0009.81,0004.30,0003.41
2023-11-15 13:01:00,SystemResetWarning,0833.3,4.99,000.00,025.4,024.2,000.0,033.8,026.7,8.2,0000.0,0009.59,0004.24,0003.38
2023-11-15 13:02:00,SystemResetWarning,0833.3,5.00,000.00,025.4,024.2,000.0,033.8,026.7,8.2,0000.0,0010.13,0004.20,0003.37
2023-11-15 13:03:00,SystemResetWarning,0833.1,5.01,000.00,025.4,024.2,000.0,033.8,026.7,8.3,0000.0,0010.51,0004.20,0003.37
2023-11-15 13:04:00,SystemResetWarning,0833.2,5.01,000.00,025.4,024.2,000.0,033.8,026.7,8.4,0000.0,0010.95,0004.19,0003.36
2023-11-15 13:05:00,SystemResetWarning,0833.2,5.01,000.00,025.3,024.2,000.0,033.8,026.7,8.3,0000.0,0010.92,0004.21,0003.37
2023-11-15 13:06:00,SystemResetWarning,0833.2,5.00,000.00,025.3,024.2,000.0,033.8,026.7,8.3,0000.0,0010.68,0004.15,0003.36
2023-11-15 13:07:00,SystemResetWarning,0833.2,5.00,000.00,025.3,024.2,000.0,033.8,026.7,8.2,0000.0,0010.79,0004.11,0003.36
2023-11-15 13:08:00,SystemResetWarning,0833.1,5.00,000.00,025.3,024.2,000.0,033.8,026.7,8.2,0000.0,0010.79,0004.05,0003.35
2023-11-15 13:09:00,SystemResetWarning,0833.1,5.00,000.00,025.3,024.2,000.0,033.8,026.7,8.2,0000.0,0011.80,0004.04,0003.33
2023-11-15 13:10:00,SystemResetWarning,0833.5,4.99,000.00,025.3,024.2,000.0,033.7,026.7,8.3,0000.0,0011.83,0003.99,0003.31
2023-11-15 13:11:00,SystemResetWarning,0833.2,5.00,000.00,025.3,024.2,000.0,033.7,026.7,8.3,0000.0,0012.18,0003.94,0003.29
2023-11-15 13:12:00,SystemResetWarning,0833.3,5.01,000.00,025.3,024.2,000.0,033.7,026.7,8.4,0000.0,0012.05,0003.90,0003.28
2023-11-15 13:13:00,SystemResetWarning,0833.0,5.00,000.00,025.3,024.2,000.0,033.7,026.7,8.4,0000.0,0011.63,0003.93,0003.27
2023-11-15 13:14:00,SystemResetWarning,0833.1,5.00,000.00,025.3,024.2,000.0,033.7,026.8,8.3,0000.0,0011.26,0003.92,0003.26
2023-11-15 13:15:00,SystemResetWarning,0833.2,4.99,000.00,025.3,024.2,000.0,033.7,026.8,8.3,0000.0,0011.39,0003.94,0003.26
2023-11-15 13:16:00,SystemResetWarning,0833.2,4.99,000.00,025.3,024.2,000.0,033.7,026.8,8.3,0000.0,0011.42,0003.92,0003.26
2023-11-15 13:17:00,SystemResetWarning,0833.2,5.00,000.00,025.3,024.2,000.0,033.7,026.7,8.3,0000.0,0011.92,0003.95,0003.25
2023-11-15 13:18:00,SystemResetWarning,0833.2,5.01,000.00,025.3,024.2,000.0,033.7,026.7,8.3,0000.0,0011.67,0003.93,0003.24
2023-11-15 13:19:00,SystemResetWarning,0833.2,5.01,000.00,025.3,024.2,000.0,033.7,026.7,8.3,0000.0,0011.29,0003.96,0003.23
2023-11-15 13:20:00,SystemResetWarning,0833.2,5.00,000.00,025.3,024.2,000.0,033.7,026.7,8.3,0000.0,0011.35,0004.01,0003.23
2023-11-15 13:21:00,SystemResetWarning,0833.2,4.99,000.00,025.3,024.2,000.0,033.7,026.7,8.3,0000.0,0010.77,0004.03,0003.23
2023-11-15 13:22:00,SystemResetWarning,0833.2,5.01,000.00,025.3,024.2,000.0,033.7,026.7,8.3,0000.0,0010.25,0004.05,0003.23
2023-11-15 13:23:00,SystemResetWarning,0833.2,5.01,000.00,025.3,024.2,000.0,033.7,026.7,8.2,0000.0,0010.02,0004.06,0003.21
2023-11-15 13:24:00,SystemResetWarning,0833.2,5.00,000.00,025.3,024.3,000.0,033.7,026.7,8.2,0000.0,0009.76,0004.04,0003.19
2023-11-15 13:25:00,SystemResetWarning,0833.2,4.99,000.00,025.3,024.3,000.0,033.7,026.7,8.2,0000.0,0009.67,0004.02,0003.18
2023-11-15 13:26:00,SystemResetWarning,0833.2,4.99,000.00,025.3,024.3,000.0,033.7,026.8,8.1,0000.0,0009.17,0003.99,0003.18
2023-11-15 13:27:00,SystemResetWarning,0833.2,4.99,000.00,025.4,024.3,000.0,033.7,026.8,8.0,0000.0,0009.22,0003.98,0003.17
2023-11-15 13:28:00,SystemResetWarning,0833.3,5.00,000.00,025.4,024.4,000.0,033.7,026.8,8.0,0000.0,0009.12,0003.93,0003.17
2023-11-15 13:29:00,SystemResetWarning,0833.3,5.01,000.00,025.4,024.4,000.0,033.7,026.8,8.0,0000.0,0009.20,0003.93,0003.17
2023-11-15 13:30:00,SystemResetWarning,0833.3,5.01,000.00,025.4,024.4,000.0,033.7,026.9,8.0,0000.0,0008.89,0003.90,0003.17
2023-11-15 13:31:00,SystemResetWarning,0833.3,5.00,000.00,025.4,024.4,000.0,033.7,026.8,8.0,0000.0,0008.11,0003.86,0003.18
2023-11-15 13:32:00,SystemResetWarning,0833.4,5.00,000.00,025.4,024.4,000.0,033.7,026.8,8.0,0000.0,0008.69,0003.88,0003.17
2023-11-15 13:33:00,SystemResetWarning,0833.4,4.99,000.00,025.4,024.4,000.0,033.7,026.8,8.1,0000.0,0009.34,0003.91,0003.17
2023-11-15 13:34:00,SystemResetWarning,0833.4,4.99,000.00,025.4,024.4,000.0,033.7,026.8,8.1,0000.0,0009.48,0003.93,0003.18
2023-11-15 13:35:00,SystemResetWarning,0833.4,5.01,000.00,025.4,024.4,000.0,033.7,026.9,8.1,0000.0,0009.66,0003.97,0003.19
2023-11-15 13:36:00,SystemResetWarning,0833.4,5.01,000.00,025.4,024.4,000.0,033.7,026.9,8.1,0000.0,0009.74,0003.99,0003.20
2023-11-15 13:37:00,SystemResetWarning,0833.4,5.00,000.00,025.4,024.4,000.0,033.7,026.8,8.1,0000.0,0009.88,0004.00,0003.20
2023-11-15 13:38:00,SystemResetWarning,0833.4,5.00,000.00,025.4,024.4,000.0,033.7,026.8,8.1,0000.0,0010.06,0004.01,0003.20
2023-11-15 13:39:00,SystemResetWarning,0833.4,4.99,000.00,025.4,024.4,000.0,033.7,026.8,8.1,0000.0,0009.54,0004.04,0003.21
2023-11-15 13:40:00,SystemResetWarning,0833.4,4.99,000.00,025.4,024.4,000.0,033.7,026.8,8.2,0000.0,0009.50,0004.08,0003.21
2023-11-15 13:41:00,SystemResetWarning,0833.4,5.01,000.00,025.4,024.4,000.0,033.7,026.9,8.3,0000.0,0009.60,0004.12,0003.22
2023-11-15 13:42:00,SystemResetWarning,0833.4,5.01,000.00,025.4,024.4,000.0,033.7,026.9,8.3,0000.0,0009.67,0004.14,0003.22
2023-11-15 13:43:00,SystemResetWarning,0833.4,5.00,000.00,025.4,024.4,000.0,033.7,026.8,8.4,0000.0,0009.89,0004.11,0003.22
2023-11-15 13:44:00,SystemResetWarning,0833.5,5.00,000.00,025.4,024.4,000.0,033.8,026.8,8.3,0000.0,0009.25,0004.10,0003.23
2023-11-15 13:45:00,SystemResetWarning,0833.7,4.99,000.00,025.4,024.4,000.0,033.8,026.8,8.5,0000.0,0009.56,0004.07,0003.22
2023-11-15 13:46:00,SystemResetWarning,0833.7,4.99,000.00,025.4,024.4,000.0,033.8,026.8,8.7,0000.0,0010.14,0004.06,0003.23
2023-11-15 13:47:00,SystemResetWarning,0833.7,5.00,000.00,025.4,024.4,000.0,033.8,026.9,8.8,0000.0,0011.28,0004.05,0003.23
2023-11-15 13:48:00,SystemResetWarning,0833.7,5.00,000.00,025.4,024.4,000.0,033.8,026.9,8.6,0000.0,0011.31,0004.08,0003.23
2023-11-15 13:49:00,SystemResetWarning,0833.7,5.00,000.00,025.4,024.4,000.0,033.8,026.9,8.6,0000.0,0011.12,0004.08,0003.23
2023-11-15 13:50:00,SystemResetWarning,0833.7,5.00,000.00,025.4,024.4,000.0,033.8,026.8,8.6,0000.0,0011.66,0004.09,0003.24
2023-11-15 13:51:00,SystemResetWarning,0833.7,5.01,000.00,025.4,024.4,000.0,033.8,026.8,8.5,0000.0,0012.05,0004.11,0003.24
2023-11-15 13:52:00,SystemResetWarning,0833.7,5.00,000.00,025.4,024.4,000.0,033.7,026.9,8.5,0000.0,0012.06,0004.08,0003.22
2023-11-15 13:53:00,SystemResetWarning,0833.7,4.99,000.00,025.4,024.4,000.0,033.7,026.8,8.6,0000.0,0012.01,0004.06,0003.22
2023-11-15 13:54:00,SystemResetWarning,0833.7,4.99,000.00,025.3,024.3,000.0,033.7,026.8,8.7,0000.0,0011.51,0004.07,0003.24
2023-11-15 13:55:00,SystemResetWarning,0833.7,5.00,000.00,025.3,024.3,000.0,033.7,026.8,8.7,0000.0,0011.60,0004.07,0003.25
2023-11-15 13:56:00,SystemResetWarning,0833.7,5.00,000.00,025.4,024.3,000.0,033.7,026.8,8.7,0000.0,0011.24,0004.09,0003.27
2023-11-15 13:57:00,SystemResetWarning,0833.7,5.00,000.00,025.3,024.3,000.0,033.7,026.8,8.7,0000.0,0010.68,0004.10,0003.27
2023-11-15 13:58:00,SystemResetWarning,0833.7,5.00,000.00,025.3,024.3,000.0,033.7,026.8,8.7,0000.0,0009.45,0004.09,0003.28
2023-11-15 13:59:00,SystemResetWarning,0833.7,5.00,000.00,025.3,024.3,000.0,033.7,026.8,8.7,0000.0,0009.30,0004.06,0003.27
